CYZ9101 ZBTJ-ZSNJ

Flight info

Callsign CYZ9101
Flight time 1h 20m
Altitude 30100
Route ELKUR W40 YQG W142 DALIM A593 DPX A470 OF
Aircraft B77L/H-SDE2E3FGILRWXY/LB2

Departure

Time 2026-04-24 05:40
Airport Tianjin Binhai International Airport (ZBTJ)

Arrival

Time 2026-04-24 07:01
Airport Nanjing Lukou International Airport (ZSNJ)
Time Latitude Longitude Altitude Speed Heading
2026-04-24 05:02 39.12372 117.34245 34 ft 0 kts 244°
2026-04-24 05:28 39.12372 117.34247 33 ft 1 kts 244°
2026-04-24 05:28 39.12379 117.34264 33 ft 2 kts 244°
2026-04-24 05:28 39.12385 117.34281 33 ft 2 kts 244°
2026-04-24 05:28 39.12392 117.34298 33 ft 2 kts 244°
2026-04-24 05:29 39.12398 117.34315 33 ft 2 kts 244°
2026-04-24 05:29 39.12403 117.34334 33 ft 2 kts 271°
2026-04-24 05:29 39.12400 117.34353 33 ft 2 kts 296°
2026-04-24 05:29 39.12391 117.34368 33 ft 2 kts 320°
2026-04-24 05:30 39.12384 117.34375 33 ft 0 kts 335°
2026-04-24 05:30 39.12380 117.34377 33 ft 0 kts 335°
2026-04-24 05:33 39.12384 117.34375 33 ft 1 kts 335°
2026-04-24 05:34 39.12444 117.34339 32 ft 7 kts 335°
2026-04-24 05:34 39.12500 117.34305 31 ft 10 kts 334°
2026-04-24 05:34 39.12572 117.34261 30 ft 12 kts 334°
2026-04-24 05:34 39.12659 117.34208 27 ft 15 kts 334°
2026-04-24 05:35 39.12758 117.34147 26 ft 16 kts 334°
2026-04-24 05:35 39.12866 117.34081 25 ft 17 kts 334°
2026-04-24 05:35 39.12979 117.34011 25 ft 17 kts 334°
2026-04-24 05:35 39.13087 117.33946 26 ft 16 kts 334°
2026-04-24 05:36 39.13189 117.33883 28 ft 15 kts 334°
2026-04-24 05:36 39.13284 117.33824 30 ft 14 kts 334°
2026-04-24 05:36 39.13375 117.33768 31 ft 14 kts 334°
2026-04-24 05:36 39.13470 117.33710 31 ft 15 kts 334°
2026-04-24 05:37 39.13568 117.33650 30 ft 16 kts 334°
2026-04-24 05:37 39.13671 117.33587 30 ft 16 kts 334°
2026-04-24 05:37 39.13776 117.33522 29 ft 17 kts 334°
2026-04-24 05:37 39.13888 117.33453 27 ft 12 kts 335°
2026-04-24 05:38 39.13956 117.33424 26 ft 9 kts 12°
2026-04-24 05:38 39.14000 117.33488 25 ft 10 kts 64°
2026-04-24 05:38 39.14030 117.33568 26 ft 6 kts 64°
2026-04-24 05:38 39.14031 117.33620 27 ft 5 kts 116°
2026-04-24 05:39 39.14004 117.33654 27 ft 5 kts 148°
2026-04-24 05:39 39.13987 117.33665 28 ft 0 kts 154°
2026-04-24 05:39 39.13981 117.33669 28 ft 7 kts 154°
2026-04-24 05:39 39.13703 117.33838 28 ft 87 kts 154°
2026-04-24 05:40 39.12897 117.34331 25 ft 167 kts 155°
2026-04-24 05:40 39.11680 117.35065 367 ft 207 kts 155°
2026-04-24 05:40 39.10361 117.35944 1379 ft 222 kts 155°
2026-04-24 05:40 39.08996 117.36799 2233 ft 225 kts 158°
2026-04-24 05:41 39.07525 117.37666 2831 ft 242 kts 158°
2026-04-24 05:41 39.05953 117.38622 3482 ft 258 kts 157°
2026-04-24 05:41 39.04324 117.39624 4259 ft 267 kts 157°
2026-04-24 05:41 39.02630 117.40669 5107 ft 273 kts 156°
2026-04-24 05:42 39.00922 117.41721 5940 ft 279 kts 156°
2026-04-24 05:42 38.99101 117.42570 6720 ft 281 kts 174°
2026-04-24 05:42 38.97192 117.42403 7497 ft 279 kts 200°
2026-04-24 05:42 38.95515 117.41196 8262 ft 279 kts 225°
2026-04-24 05:43 38.94336 117.39245 9037 ft 281 kts 239°
2026-04-24 05:43 38.93351 117.37062 9809 ft 284 kts 242°
2026-04-24 05:43 38.92391 117.34853 10423 ft 294 kts 242°
2026-04-24 05:43 38.91399 117.32454 10884 ft 310 kts 244°
2026-04-24 05:44 38.90395 117.29957 11384 ft 326 kts 244°
2026-04-24 05:44 38.89323 117.27312 11896 ft 342 kts 243°
2026-04-24 05:44 38.88202 117.24567 12669 ft 352 kts 243°
2026-04-24 05:44 38.87067 117.21795 13594 ft 357 kts 243°
2026-04-24 05:45 38.85910 117.18972 14577 ft 363 kts 244°
2026-04-24 05:45 38.84728 117.16091 15621 ft 368 kts 244°
2026-04-24 05:45 38.83548 117.13215 16622 ft 373 kts 244°
2026-04-24 05:45 38.82332 117.10256 17648 ft 378 kts 244°
2026-04-24 05:46 38.81100 117.07260 18645 ft 383 kts 244°
2026-04-24 05:46 38.79866 117.04261 19633 ft 388 kts 244°
2026-04-24 05:46 38.78600 117.01189 20624 ft 392 kts 244°
2026-04-24 05:46 38.77331 116.98113 21561 ft 397 kts 244°
2026-04-24 05:47 38.76036 116.94975 22488 ft 401 kts 243°
2026-04-24 05:47 38.74738 116.91846 23376 ft 405 kts 243°
2026-04-24 05:47 38.73391 116.88660 24253 ft 410 kts 243°
2026-04-24 05:47 38.72024 116.85435 25144 ft 413 kts 243°
2026-04-24 05:48 38.70661 116.82225 25940 ft 417 kts 243°
2026-04-24 05:48 38.69267 116.78942 26729 ft 422 kts 243°
2026-04-24 05:48 38.67791 116.75719 27525 ft 426 kts 237°
2026-04-24 05:48 38.65922 116.72745 28352 ft 430 kts 228°
2026-04-24 05:49 38.63732 116.70182 28901 ft 431 kts 220°
2026-04-24 05:49 38.61227 116.68030 28955 ft 432 kts 211°
2026-04-24 05:49 38.55638 116.65410 28957 ft 433 kts 193°
2026-04-24 05:50 38.49561 116.64650 28962 ft 437 kts 187°
2026-04-24 05:50 38.43517 116.64050 28960 ft 436 kts 187°
2026-04-24 05:51 38.37479 116.63407 28967 ft 435 kts 187°
2026-04-24 05:51 38.31448 116.62794 28960 ft 436 kts 183°
2026-04-24 05:52 38.25425 116.63880 28971 ft 441 kts 167°
2026-04-24 05:52 38.19544 116.66053 28965 ft 442 kts 166°
2026-04-24 05:53 38.13624 116.68256 28971 ft 441 kts 166°
2026-04-24 05:53 38.07730 116.70467 28968 ft 442 kts 166°
2026-04-24 05:54 38.01850 116.72716 28970 ft 442 kts 166°
2026-04-24 05:54 37.95971 116.74957 28964 ft 441 kts 166°
2026-04-24 05:55 37.90030 116.77216 28961 ft 440 kts 166°
2026-04-24 05:55 37.83722 116.79610 28973 ft 440 kts 166°
2026-04-24 05:56 37.77691 116.81894 28977 ft 440 kts 166°
2026-04-24 05:56 37.71839 116.84106 28975 ft 440 kts 166°
2026-04-24 05:57 37.65980 116.86317 28979 ft 439 kts 166°
2026-04-24 05:57 37.60098 116.88534 28981 ft 438 kts 166°
2026-04-24 05:58 37.54177 116.90761 28980 ft 439 kts 166°
2026-04-24 05:58 37.48220 116.92998 28990 ft 440 kts 166°
2026-04-24 05:59 37.41960 116.95345 28986 ft 439 kts 166°
2026-04-24 05:59 37.36114 116.97533 28991 ft 438 kts 166°
2026-04-24 06:00 37.30260 116.99719 28994 ft 438 kts 166°
2026-04-24 06:00 37.24461 117.02268 29020 ft 440 kts 161°
2026-04-24 06:01 37.18770 117.04990 29023 ft 440 kts 161°
2026-04-24 06:01 37.13020 117.07706 29020 ft 440 kts 161°
2026-04-24 06:02 37.07274 117.10402 29024 ft 441 kts 161°
2026-04-24 06:02 37.01532 117.13084 29030 ft 440 kts 161°
2026-04-24 06:03 36.95828 117.15742 29031 ft 439 kts 161°
2026-04-24 06:03 36.90072 117.18417 29034 ft 440 kts 161°
2026-04-24 06:04 36.84305 117.20911 29036 ft 438 kts 169°
2026-04-24 06:04 36.78249 117.21558 29047 ft 436 kts 182°
2026-04-24 06:05 36.72181 117.21521 29052 ft 435 kts 182°
2026-04-24 06:05 36.66128 117.21478 29071 ft 436 kts 182°
2026-04-24 06:06 36.60059 117.21435 29080 ft 435 kts 182°
2026-04-24 06:06 36.54005 117.21392 29096 ft 436 kts 182°
2026-04-24 06:07 36.47925 117.21349 29098 ft 436 kts 182°
2026-04-24 06:07 36.41839 117.21564 29079 ft 439 kts 173°
2026-04-24 06:08 36.35930 117.23473 29079 ft 442 kts 165°
2026-04-24 06:08 36.30013 117.25679 29088 ft 443 kts 165°
2026-04-24 06:09 36.24130 117.27868 29076 ft 442 kts 165°
2026-04-24 06:09 36.18206 117.30067 29081 ft 444 kts 165°
2026-04-24 06:10 36.12304 117.32252 29091 ft 444 kts 165°
2026-04-24 06:11 36.03433 117.35532 29093 ft 444 kts 165°
2026-04-24 06:11 35.97521 117.37721 29097 ft 444 kts 165°
2026-04-24 06:12 35.91613 117.39938 29103 ft 444 kts 164°
2026-04-24 06:12 35.85678 117.42160 29102 ft 445 kts 165°
2026-04-24 06:13 35.79747 117.44376 29107 ft 446 kts 165°
2026-04-24 06:13 35.73824 117.46585 29108 ft 446 kts 165°
2026-04-24 06:14 35.67833 117.48816 29110 ft 447 kts 165°
2026-04-24 06:14 35.61920 117.51015 29115 ft 447 kts 165°
2026-04-24 06:15 35.55957 117.53228 29123 ft 447 kts 165°
2026-04-24 06:15 35.50001 117.55435 29116 ft 446 kts 165°
2026-04-24 06:16 35.44045 117.57639 29116 ft 447 kts 165°
2026-04-24 06:16 35.38065 117.59848 29121 ft 448 kts 165°
2026-04-24 06:17 35.32116 117.62043 29125 ft 449 kts 165°
2026-04-24 06:17 35.26115 117.64253 29130 ft 449 kts 165°
2026-04-24 06:18 35.20144 117.66448 29122 ft 448 kts 165°
2026-04-24 06:18 35.14178 117.68639 29127 ft 449 kts 165°
2026-04-24 06:19 35.08182 117.70837 29119 ft 448 kts 165°
2026-04-24 06:19 35.02207 117.73027 29125 ft 450 kts 165°
2026-04-24 06:20 34.96188 117.75231 29118 ft 451 kts 165°
2026-04-24 06:20 34.90191 117.77425 29128 ft 451 kts 165°
2026-04-24 06:21 34.84177 117.79620 29118 ft 451 kts 166°
2026-04-24 06:21 34.78126 117.81825 29124 ft 450 kts 166°
2026-04-24 06:22 34.72119 117.83987 29127 ft 451 kts 166°
2026-04-24 06:22 34.66105 117.86148 29129 ft 451 kts 166°
2026-04-24 06:23 34.60114 117.88299 29135 ft 451 kts 166°
2026-04-24 06:23 34.54079 117.90462 29135 ft 452 kts 166°
2026-04-24 06:24 34.48031 117.92627 29131 ft 452 kts 167°
2026-04-24 06:24 34.42022 117.94775 29130 ft 452 kts 167°
2026-04-24 06:25 34.35948 117.96942 29134 ft 452 kts 167°
2026-04-24 06:25 34.29914 117.99093 29131 ft 453 kts 167°
2026-04-24 06:26 34.23898 118.01259 29127 ft 454 kts 167°
2026-04-24 06:26 34.17837 118.03471 29131 ft 455 kts 167°
2026-04-24 06:27 34.11750 118.05688 29133 ft 455 kts 167°
2026-04-24 06:27 34.05726 118.07878 29134 ft 454 kts 167°
2026-04-24 06:28 33.99680 118.10072 29138 ft 453 kts 167°
2026-04-24 06:28 33.93628 118.12277 29129 ft 455 kts 167°
2026-04-24 06:29 33.87522 118.14498 29139 ft 458 kts 167°
2026-04-24 06:29 33.81443 118.16708 28995 ft 456 kts 167°
2026-04-24 06:29 33.78433 118.17804 28665 ft 451 kts 167°
2026-04-24 06:30 33.75428 118.18902 28356 ft 443 kts 167°
2026-04-24 06:30 33.72523 118.19961 28054 ft 437 kts 168°
2026-04-24 06:30 33.69577 118.21034 27745 ft 437 kts 168°
2026-04-24 06:30 33.66668 118.22089 27439 ft 438 kts 168°
2026-04-24 06:31 33.63780 118.23139 27133 ft 436 kts 168°
2026-04-24 06:31 33.60851 118.24204 26827 ft 433 kts 167°
2026-04-24 06:31 33.57994 118.25241 26523 ft 429 kts 167°
2026-04-24 06:31 33.55135 118.26277 26222 ft 429 kts 167°
2026-04-24 06:32 33.52300 118.27305 25921 ft 428 kts 167°
2026-04-24 06:32 33.49441 118.28340 25619 ft 425 kts 167°
2026-04-24 06:32 33.46611 118.29365 25319 ft 422 kts 167°
2026-04-24 06:32 33.43803 118.30380 25018 ft 419 kts 167°
2026-04-24 06:33 33.41038 118.31379 24717 ft 418 kts 167°
2026-04-24 06:33 33.38240 118.32389 24409 ft 417 kts 167°
2026-04-24 06:33 33.35490 118.33382 24107 ft 414 kts 167°
2026-04-24 06:33 33.32725 118.34380 23799 ft 411 kts 167°
2026-04-24 06:34 33.30024 118.35353 23497 ft 408 kts 167°
2026-04-24 06:34 33.27296 118.36336 23191 ft 407 kts 166°
2026-04-24 06:34 33.24604 118.37304 22887 ft 406 kts 166°
2026-04-24 06:34 33.21892 118.38281 22580 ft 404 kts 167°
2026-04-24 06:35 33.19192 118.39253 22272 ft 402 kts 166°
2026-04-24 06:35 33.16546 118.40207 21972 ft 400 kts 166°
2026-04-24 06:35 33.13888 118.41164 21668 ft 399 kts 166°
2026-04-24 06:35 33.11230 118.42121 21363 ft 396 kts 166°
2026-04-24 06:36 33.08584 118.43072 21063 ft 395 kts 166°
2026-04-24 06:36 33.05980 118.44009 20764 ft 393 kts 166°
2026-04-24 06:36 33.03361 118.44950 20462 ft 391 kts 166°
2026-04-24 06:36 33.00757 118.45885 20163 ft 389 kts 166°
2026-04-24 06:37 32.98191 118.46806 19863 ft 386 kts 166°
2026-04-24 06:37 32.95587 118.47739 19561 ft 386 kts 166°
2026-04-24 06:37 32.93045 118.48650 19267 ft 384 kts 166°
2026-04-24 06:37 32.90478 118.49570 18971 ft 383 kts 166°
2026-04-24 06:38 32.87922 118.50485 18768 ft 379 kts 166°
2026-04-24 06:38 32.85397 118.51388 18760 ft 382 kts 166°
2026-04-24 06:38 32.82854 118.52296 18755 ft 382 kts 166°
2026-04-24 06:38 32.80328 118.53199 18755 ft 380 kts 166°
2026-04-24 06:39 32.77770 118.54112 18757 ft 380 kts 166°
2026-04-24 06:39 32.75275 118.55004 18753 ft 372 kts 166°
2026-04-24 06:39 32.72790 118.55891 18509 ft 372 kts 166°
2026-04-24 06:39 32.70303 118.56753 18135 ft 368 kts 169°
2026-04-24 06:40 32.67802 118.57219 17761 ft 360 kts 180°
2026-04-24 06:40 32.65348 118.57177 17396 ft 353 kts 189°
2026-04-24 06:40 32.62936 118.56685 17028 ft 351 kts 195°
2026-04-24 06:40 32.60531 118.56067 16660 ft 350 kts 195°
2026-04-24 06:41 32.58174 118.55455 16293 ft 348 kts 195°
2026-04-24 06:41 32.55801 118.54839 15927 ft 346 kts 195°
2026-04-24 06:41 32.53438 118.54225 15561 ft 344 kts 194°
2026-04-24 06:41 32.51105 118.53738 15197 ft 342 kts 187°
2026-04-24 06:42 32.48744 118.53719 14831 ft 341 kts 176°
2026-04-24 06:42 32.46392 118.54144 14464 ft 339 kts 170°
2026-04-24 06:42 32.44085 118.54660 14098 ft 336 kts 170°
2026-04-24 06:42 32.41787 118.55179 13755 ft 332 kts 169°
2026-04-24 06:43 32.39547 118.55683 13441 ft 328 kts 169°
2026-04-24 06:43 32.37304 118.56188 13120 ft 325 kts 169°
2026-04-24 06:43 32.35102 118.56683 12803 ft 321 kts 169°
2026-04-24 06:43 32.32900 118.57176 12485 ft 318 kts 169°
2026-04-24 06:44 32.30743 118.57660 12171 ft 314 kts 169°
2026-04-24 06:44 32.28615 118.58137 11848 ft 311 kts 168°
2026-04-24 06:44 32.26495 118.58612 11532 ft 308 kts 168°
2026-04-24 06:44 32.24400 118.59081 11213 ft 306 kts 168°
2026-04-24 06:45 32.22308 118.59549 10893 ft 303 kts 168°
2026-04-24 06:45 32.20235 118.60013 10574 ft 300 kts 168°
2026-04-24 06:45 32.18204 118.60467 10259 ft 298 kts 168°
2026-04-24 06:45 32.16161 118.60924 9938 ft 296 kts 167°
2026-04-24 06:46 32.14162 118.61370 9624 ft 294 kts 167°
2026-04-24 06:46 32.12143 118.61819 9305 ft 292 kts 167°
2026-04-24 06:46 32.10162 118.62252 8989 ft 291 kts 167°
2026-04-24 06:46 32.08158 118.62690 8669 ft 290 kts 167°
2026-04-24 06:47 32.06195 118.63120 8351 ft 288 kts 167°
2026-04-24 06:47 32.04240 118.63547 8033 ft 286 kts 167°
2026-04-24 06:47 32.02271 118.63979 7710 ft 284 kts 167°
2026-04-24 06:47 32.00339 118.64402 7389 ft 282 kts 167°
2026-04-24 06:48 31.98398 118.64830 7071 ft 281 kts 167°
2026-04-24 06:48 31.96491 118.65250 6756 ft 280 kts 167°
2026-04-24 06:48 31.94566 118.65675 6438 ft 278 kts 167°
2026-04-24 06:48 31.92678 118.66090 6122 ft 277 kts 167°
2026-04-24 06:49 31.90781 118.66508 5906 ft 271 kts 167°
2026-04-24 06:49 31.88960 118.66908 5882 ft 263 kts 167°
2026-04-24 06:49 31.87176 118.67301 5880 ft 262 kts 167°
2026-04-24 06:49 31.85407 118.67690 5876 ft 250 kts 167°
2026-04-24 06:50 31.83725 118.68059 5877 ft 240 kts 167°
2026-04-24 06:50 31.82092 118.68419 5879 ft 237 kts 167°
2026-04-24 06:50 31.80473 118.68776 5883 ft 237 kts 167°
2026-04-24 06:50 31.78855 118.69135 5877 ft 237 kts 167°
2026-04-24 06:51 31.77221 118.69280 5832 ft 232 kts 189°
2026-04-24 06:51 31.75782 118.68520 5718 ft 225 kts 221°
2026-04-24 06:51 31.74768 118.67165 5627 ft 224 kts 233°
2026-04-24 06:51 31.73893 118.65654 5538 ft 223 kts 237°
2026-04-24 06:52 31.73057 118.64106 5441 ft 224 kts 237°
2026-04-24 06:52 31.72236 118.62573 5347 ft 222 kts 237°
2026-04-24 06:52 31.71419 118.61048 5255 ft 221 kts 237°
2026-04-24 06:52 31.70590 118.59504 5161 ft 221 kts 237°
2026-04-24 06:53 31.69769 118.57974 5050 ft 222 kts 237°
2026-04-24 06:53 31.68931 118.56457 4823 ft 221 kts 230°
2026-04-24 06:53 31.67731 118.55388 4559 ft 216 kts 199°
2026-04-24 06:53 31.66276 118.55201 4300 ft 209 kts 168°
2026-04-24 06:54 31.64937 118.55807 4053 ft 204 kts 150°
2026-04-24 06:54 31.63717 118.56628 3812 ft 203 kts 147°
2026-04-24 06:54 31.62509 118.57503 3568 ft 202 kts 146°
2026-04-24 06:54 31.61326 118.58396 3318 ft 201 kts 139°
2026-04-24 06:55 31.60574 118.59695 3075 ft 193 kts 103°
2026-04-24 06:55 31.60592 118.61220 2917 ft 184 kts 77°
2026-04-24 06:55 31.60954 118.62634 2791 ft 177 kts 71°
2026-04-24 06:55 31.61381 118.63974 2674 ft 176 kts 69°
2026-04-24 06:56 31.61825 118.65325 2553 ft 176 kts 69°
2026-04-24 06:56 31.62266 118.66666 2431 ft 177 kts 69°
2026-04-24 06:56 31.62704 118.68001 2308 ft 177 kts 69°
2026-04-24 06:56 31.63151 118.69357 2182 ft 177 kts 67°
2026-04-24 06:57 31.63742 118.70609 2064 ft 177 kts 59°
2026-04-24 06:57 31.64372 118.71852 1940 ft 176 kts 60°
2026-04-24 06:57 31.65012 118.73072 1814 ft 171 kts 58°
2026-04-24 06:57 31.65626 118.74194 1785 ft 159 kts 58°
2026-04-24 06:58 31.66210 118.75272 1779 ft 150 kts 58°
2026-04-24 06:58 31.66752 118.76279 1702 ft 146 kts 58°
2026-04-24 06:58 31.67281 118.77261 1525 ft 141 kts 58°
2026-04-24 06:58 31.67808 118.78239 1339 ft 141 kts 58°
2026-04-24 06:59 31.68332 118.79208 1139 ft 142 kts 60°
2026-04-24 06:59 31.68852 118.80191 950 ft 141 kts 57°
2026-04-24 06:59 31.69390 118.81165 692 ft 140 kts 59°
2026-04-24 06:59 31.69889 118.82148 513 ft 141 kts 57°
2026-04-24 07:00 31.70455 118.83099 354 ft 140 kts 56°
2026-04-24 07:00 31.70957 118.84093 218 ft 145 kts 57°
2026-04-24 07:00 31.71486 118.85069 76 ft 142 kts 58°
2026-04-24 07:00 31.71958 118.85940 63 ft 101 kts 60°
2026-04-24 07:01 31.72232 118.86453 63 ft 48 kts 58°
2026-04-24 07:01 31.72310 118.86575 63 ft 14 kts 45°
2026-04-24 07:01 31.72349 118.86616 63 ft 7 kts 39°
2026-04-24 07:01 31.72394 118.86655 63 ft 8 kts 34°
2026-04-24 07:02 31.72450 118.86696 63 ft 8 kts 31°
2026-04-24 07:02 31.72511 118.86714 63 ft 9 kts 342°
2026-04-24 07:02 31.72555 118.86658 63 ft 9 kts 303°
2026-04-24 07:02 31.72609 118.86607 63 ft 10 kts 329°
2026-04-24 07:03 31.72679 118.86557 63 ft 12 kts 328°
2026-04-24 07:03 31.72757 118.86500 63 ft 13 kts 327°
2026-04-24 07:03 31.72843 118.86436 63 ft 15 kts 327°
2026-04-24 07:03 31.72935 118.86367 63 ft 16 kts 328°
2026-04-24 07:04 31.73035 118.86295 63 ft 17 kts 328°
2026-04-24 07:04 31.73138 118.86220 63 ft 17 kts 328°
2026-04-24 07:04 31.73247 118.86140 63 ft 18 kts 328°
2026-04-24 07:04 31.73359 118.86058 63 ft 19 kts 328°
2026-04-24 07:05 31.73473 118.85975 63 ft 19 kts 328°
2026-04-24 07:05 31.73591 118.85889 63 ft 20 kts 328°
2026-04-24 07:05 31.73688 118.85818 63 ft 10 kts 328°
2026-04-24 07:05 31.73743 118.85777 63 ft 7 kts 315°
2026-04-24 07:06 31.73745 118.85712 63 ft 9 kts 246°
2026-04-24 07:06 31.73708 118.85639 63 ft 11 kts 238°
2026-04-24 07:06 31.73663 118.85555 63 ft 12 kts 238°
2026-04-24 07:06 31.73613 118.85461 63 ft 14 kts 238°
2026-04-24 07:07 31.73557 118.85356 63 ft 15 kts 238°
2026-04-24 07:07 31.73497 118.85244 63 ft 16 kts 237°
2026-04-24 07:07 31.73368 118.85001 63 ft 18 kts 238°
2026-04-24 07:08 31.73298 118.84870 63 ft 19 kts 238°
2026-04-24 07:08 31.73245 118.84771 63 ft 8 kts 238°
2026-04-24 07:08 31.73203 118.84731 63 ft 8 kts 184°
2026-04-24 07:08 31.73152 118.84752 63 ft 6 kts 157°
2026-04-24 07:09 31.73107 118.84737 63 ft 8 kts 232°
2026-04-24 07:09 31.73074 118.84671 63 ft 10 kts 239°
2026-04-24 07:09 31.73040 118.84613 63 ft 7 kts 217°
2026-04-24 07:09 31.72985 118.84611 63 ft 9 kts 159°
2026-04-24 07:10 31.72942 118.84641 63 ft 5 kts 142°
2026-04-24 07:10 31.72931 118.84686 63 ft 7 kts 83°
2026-04-24 07:10 31.72948 118.84733 63 ft 5 kts 57°
2026-04-24 07:10 31.72962 118.84757 63 ft 0 kts 57°